Regional Weather Roundup
Issued by NWS

Home | Current Version | Previous Version | Text Only | Print | Product List | Glossary On
Versions: 1 2 3 4 5 6 7 8 9 10 11 12 13 14 15 16 17 18 19 20 21 22 23 24 25 26 27 28 29 30 31 32 33 34 35 36 37 38 39 40 41 42 43 44 45 46 47 48 49 50
000
ASUS43 KOAX 061510
RWRNE

WEATHER ROUNDUP FOR NEBRASKA
NATIONAL WEATHER SERVICE OMAHA NE
1000 AM CDT MON JUL 06 2015

NOTES: SATELLITE DATA IS BEING USED TO AUGMENT CLOUD COVER ABOVE
       12000 FEET.
       "FAIR" INDICATES FEW OR NO CLOUDS BELOW 12,000 FEET WITH NO
       SIGNIFICANT WEATHER AND/OR OBSTRUCTIONS TO VISIBILITY.

  * THESE STATIONS DO NOT REPORT WEATHER SUCH AS RAIN...SNOW OR FOG.

NEZ001>004-019>022-054>056-061600-
NEBRASKA PANHANDLE

CITY           SKY/WX    TMP DP  RH WIND       PRES   REMARKS
SCOTTSBLUFF    CLOUDY    61  55  81 NE8       30.22R HAZE
ALLIANCE       PTSUNNY   63  57  81 N14       30.19R HAZE
CHADRON        CLOUDY    61  57  87 N7        30.22R FOG
KIMBALL          N/A    N/A N/A N/A MISG        N/A
SIDNEY         CLOUDY    59  57  93 NE18G25   30.21R FOG
$$

NEZ057>060-069>072-079>082-061600-
SOUTHWEST NEBRASKA

CITY           SKY/WX    TMP DP  RH WIND       PRES   REMARKS
NORTH PLATTE   CLOUDY    65  59  81 N17G28    30.06R
IMPERIAL       CLOUDY    65  58  78 N18G26    30.10R
LEXINGTON      CLOUDY    69  64  84 N16G28    30.01R
MCCOOK         CLOUDY    71  63  75 N26G35    30.02R
OGALLALA       CLOUDY    64  58  83 N18       30.14R
$$

NEZ005>010-023>029-035>040-094-061600-
NORTH CENTRAL NEBRASKA

CITY           SKY/WX    TMP DP  RH WIND       PRES   REMARKS
VALENTINE      CLOUDY    66  60  81 N14       30.11R HAZE
AINSWORTH      CLOUDY    64  64 100 N18G24    30.09R FOG
BROKEN BOW     CLOUDY    66  62  87 N22G30    30.02R FOG
O`NEILL        CLOUDY    64  63  97 N18G28    30.03R FOG
ORD            CLOUDY    68  64  87 N18G25    29.99R
THEDFORD       CLOUDY    66  60  82 N18G25    30.10S HAZE
$$

NEZ041-046>049-061>064-073>077-083>087-061600-
SOUTH CENTRAL NEBRASKA

CITY           SKY/WX    TMP DP  RH WIND       PRES   REMARKS
GRAND ISLAND   CLOUDY    73  69  87 N14       29.95R
AURORA         CLOUDY    73  73  99 N10       29.94R
HASTINGS       LGT RAIN  71  69  93 N12       29.93S
HEBRON         CLOUDY    79  69  70 NE7       29.88R
HOLDREGE       CLOUDY    69  66  91 N14G20    29.98R
KEARNEY *      CLOUDY    70  64  83 N23       29.97R
YORK           CLOUDY    72  72 100 N7        29.93R
$$

NEZ011>018-030>034-042>045-061600-
NORTHEAST NEBRASKA

CITY           SKY/WX    TMP DP  RH WIND       PRES   REMARKS
NORFOLK        CLOUDY    71  69  93 W10       29.92R
ALBION         CLOUDY    67  65  91 N13G25    29.96R
BLAIR          CLOUDY    72  69  91 CALM      29.89S
FREMONT        CLOUDY    74  71  91 NW3       29.90R
TEKAMAH        CLOUDY    75  71  87 CALM      29.88R
WAYNE          CLOUDY    71  69  95 NW9       29.92R
$$

NEZ050>053-065>068-078-088>093-061600-
SOUTHEAST NEBRASKA

CITY           SKY/WX    TMP DP  RH WIND       PRES   REMARKS
LINCOLN        LGT RAIN  75  72  90 N9        29.90R
OMAHA EPPLEY   LGT RAIN  74  71  91 SE6       29.88R
BEATRICE       CLOUDY    80  70  72 E6        29.88R
FALLS CITY     CLOUDY    81  73  76 S10       29.88R
NEBRASKA CITY  LGT RAIN  76  69  78 N5        29.88S
PLATTSMOUTH    LGT RAIN  73  71  91 CALM      29.90R
$$

NEZ044-045-051>053-067-061600-
OMAHA AREA

CITY           SKY/WX    TMP DP  RH WIND       PRES   REMARKS
OMAHA EPPLEY   LGT RAIN  74  71  91 SE6       29.88R
BLAIR          CLOUDY    72  69  91 CALM      29.89S
FREMONT        CLOUDY    74  71  91 NW3       29.90R
MILLARD        DRIZZLE   73  71  93 CALM      29.88F
OFFUTT AFB     LGT RAIN  74  72  93 E3        29.87S
PLATTSMOUTH    LGT RAIN  73  71  91 CALM      29.90R
WAHOO          PTSUNNY   73  70  90 CALM      29.90R
$$


USA.gov is the U.S. government's official web portal to all federal, state and local government web resources and services.